Location: Doverdale
(52.2833°N, 2.2000°W)
Time: 03:28:11
(UTC+00:00)

Cosmos 1980 Rocket - Pass Details

Date: 08 March 2021
Orbit: 828 x 851 km, 71.0° (Epoch: 15 April)

Event Time Altitude Azimuth Distance (km) Brightness Sun altitude
Rises 21:08:05 0° 307° (NW) 3,423 6.6 -28.2°
Reaches altitude 10° 21:12:36 10° 340° (NNW) 2,490 5.3 -28.7°
Maximum altitude 21:14:28 12° 359° (N) 2,384 4.9 -29.0°
Drops below altitude 10° 21:16:19 10° 19° (NNE) 2,491 4.8 -29.2°
Enters shadow 21:18:38 - 38° (NE) 2,880 4.9 -29.5°
